User: anonymous   Login
Location: Albany
(35.0000°S, 118.0000°E)
Time: 15:07:27
(UTC-05:00)
Language:

Atlas Centaur 2 - Orbit

View from above orbital plane
View from above orbital plane
View from above satellite
View from above satellite

Ground track
Ground track

The orbit data is extracted from the following two-line orbital elements,

1 00694U 63047A   14354.57179318  .00003392  00000-0  44385-3 0  6662
2 00694 030.3554 124.4972 0595488 067.4544 016.1184 14.00202973555025
Epoch (UTC): 20 December 2014 13:43:22
Eccentricity: 0.0595488
inclination: 30.3554°
perigee height: 460 km
apogee height: 1326 km
right ascension of ascending node: 124.4972°
argument of perigee: 67.4544°
revolutions per day: 14.00202973
mean anomaly at epoch: 16.1184°
orbit number at epoch: 55502

The dashed part of the orbit path shows where the satellite is in the earth's shadow,  

DLR